• In Germany
  • List of Countries
  • For 7 days
  • Water Temperature
  • Satellite Maps
  • Weather Map
  • Weather Widgets
  • user-avatar
    Login

    Hourly Weather Sidi Bu-l-Abbas

    Today, 29 April, Saturday

    Time Temperature Precipitation Wind Pressure Humidity
    00:00 +14°C° 0 mm 1 mps 717 mmHg 91%
    01:00 +14°C° 0 mm 1 mps 717 mmHg 91%
    02:00 +14°C° 0 mm 1 mps 717 mmHg 91%
    03:00 +13°C° 0 mm 1 mps 717 mmHg 92%
    04:00 +13°C° 0 mm 1 mps 717 mmHg 92%
    05:00 +14°C° 0 mm 1 mps 717 mmHg 92%
    06:00 +14°C° 0 mm 1 mps 717 mmHg 92%
    07:00 +16°C° 0 mm 2 mps 717 mmHg 79%
    08:00 +19°C° 0 mm 3 mps 718 mmHg 66%
    09:00 +21°C° 0 mm 4 mps 718 mmHg 53%
    10:00 +22°C° 0 mm 4 mps 718 mmHg 49%
    11:00 +23°C° 0 mm 4 mps 718 mmHg 45%
    12:00 +25°C° 0 mm 4 mps 718 mmHg 40%
    13:00 +25°C° 0.1 mm 4 mps 718 mmHg 41%
    14:00 +25°C° 0.1 mm 4 mps 718 mmHg 42%
    15:00 +25°C° 0.1 mm 4 mps 718 mmHg 43%
    16:00 +24°C° 0.1 mm 3 mps 718 mmHg 48%
    17:00 +21°C° 0.1 mm 3 mps 717 mmHg 53%
    18:00 +20°C° 0.1 mm 2 mps 717 mmHg 57%
    19:00 +18°C° 0.1 mm 2 mps 717 mmHg 66%
    20:00 +18°C° 0.1 mm 1 mps 718 mmHg 74%
    21:00 +15°C° 0.1 mm 1 mps 718 mmHg 83%
    22:00 +15°C° 0.1 mm 1 mps 718 mmHg 84%
    23:00 +15°C° 0.1 mm 1 mps 718 mmHg 85%

    Tomorrow, 30 April, Sunday

    Time Temperature Precipitation Wind Pressure Humidity
    00:00 +14°C° 0.1 mm 1 mps 718 mmHg 86%
    01:00 +14°C° 0 mm 1 mps 718 mmHg 87%
    02:00 +14°C° 0 mm 1 mps 718 mmHg 88%
    03:00 +13°C° 0 mm 1 mps 718 mmHg 90%
    04:00 +14°C° 0 mm 1 mps 718 mmHg 88%
    05:00 +14°C° 0 mm 1 mps 718 mmHg 87%
    06:00 +15°C° 0 mm 1 mps 719 mmHg 86%
    07:00 +16°C° 0 mm 1 mps 719 mmHg 77%
    08:00 +18°C° 0 mm 2 mps 720 mmHg 68%
    09:00 +20°C° 0 mm 2 mps 720 mmHg 59%
    10:00 +21°C° 0 mm 3 mps 720 mmHg 56%
    11:00 +22°C° 0 mm 4 mps 720 mmHg 53%
    12:00 +23°C° 0 mm 5 mps 720 mmHg 50%
    13:00 +22°C° 0 mm 5 mps 720 mmHg 51%
    14:00 +22°C° 0 mm 5 mps 719 mmHg 52%
    15:00 +22°C° 0 mm 5 mps 719 mmHg 53%
    16:00 +21°C° 0 mm 5 mps 719 mmHg 57%
    17:00 +20°C° 0 mm 5 mps 719 mmHg 61%
    18:00 +18°C° 0 mm 4 mps 719 mmHg 64%
    19:00 +17°C° 0 mm 3 mps 719 mmHg 72%
    20:00 +14°C° 0 mm 3 mps 720 mmHg 79%
    21:00 +13°C° 0 mm 2 mps 720 mmHg 86%
    22:00 +13°C° 0 mm 2 mps 720 mmHg 86%
    23:00 +13°C° 0 mm 2 mps 720 mmHg 87%

    Day after tomorrow, 1 May, Monday

    Time Temperature Precipitation Wind Pressure Humidity
    00:00 +13°C° 0 mm 2 mps 721 mmHg 87%
    01:00 +13°C° 0 mm 2 mps 720 mmHg 87%
    02:00 +12°C° 0 mm 2 mps 720 mmHg 87%
    03:00 +12°C° 0 mm 2 mps 720 mmHg 87%
    04:00 +12°C° 0 mm 2 mps 721 mmHg 85%
    05:00 +13°C° 0 mm 2 mps 721 mmHg 83%
    06:00 +13°C° 0 mm 2 mps 721 mmHg 82%
    07:00 +15°C° 0 mm 2 mps 722 mmHg 72%
    08:00 +18°C° 0 mm 3 mps 722 mmHg 62%
    09:00 +20°C° 0 mm 3 mps 723 mmHg 52%
    10:00 +21°C° 0 mm 3 mps 723 mmHg 49%
    11:00 +22°C° 0 mm 4 mps 723 mmHg 46%
    12:00 +23°C° 0 mm 4 mps 723 mmHg 43%
    13:00 +23°C° 0 mm 4 mps 722 mmHg 43%
    14:00 +23°C° 0 mm 4 mps 722 mmHg 44%
    15:00 +23°C° 0 mm 4 mps 722 mmHg 44%
    16:00 +22°C° 0 mm 3 mps 722 mmHg 48%
    17:00 +21°C° 0 mm 3 mps 722 mmHg 53%
    18:00 +20°C° 0 mm 2 mps 721 mmHg 57%
    19:00 +18°C° 0 mm 2 mps 722 mmHg 67%
    20:00 +16°C° 0 mm 2 mps 722 mmHg 77%
    21:00 +14°C° 0 mm 1 mps 722 mmHg 87%
    22:00 +13°C° 0 mm 1 mps 722 mmHg 88%
    23:00 +13°C° 0 mm 1 mps 722 mmHg 89%

    2 May, Tuesday

    Time Temperature Precipitation Wind Pressure Humidity
    00:00 +12°C° 0 mm 1 mps 722 mmHg 89%
    01:00 +12°C° 0 mm 1 mps 722 mmHg 90%
    02:00 +12°C° 0 mm 1 mps 721 mmHg 90%
    03:00 +11°C° 0 mm 1 mps 721 mmHg 91%
    04:00 +12°C° 0 mm 1 mps 721 mmHg 89%
    05:00 +13°C° 0 mm 1 mps 721 mmHg 88%
    06:00 +14°C° 0 mm 1 mps 721 mmHg 87%
    07:00 +18°C° 0 mm 1 mps 722 mmHg 73%
    08:00 +21°C° 0 mm 1 mps 722 mmHg 60%
    09:00 +24°C° 0 mm 1 mps 723 mmHg 46%
    10:00 +25°C° 0 mm 2 mps 722 mmHg 42%
    11:00 +27°C° 0 mm 3 mps 722 mmHg 37%
    12:00 +28°C° 0 mm 3 mps 722 mmHg 33%
    13:00 +28°C° 0 mm 4 mps 721 mmHg 34%
    14:00 +28°C° 0 mm 4 mps 721 mmHg 35%
    15:00 +28°C° 0 mm 4 mps 720 mmHg 36%
    16:00 +26°C° 0 mm 4 mps 720 mmHg 40%
    17:00 +25°C° 0 mm 4 mps 720 mmHg 45%
    18:00 +23°C° 0 mm 4 mps 720 mmHg 49%
    19:00 +20°C° 0 mm 3 mps 720 mmHg 59%
    20:00 +18°C° 0 mm 2 mps 720 mmHg 68%
    21:00 +16°C° 0 mm 1 mps 721 mmHg 78%
    22:00 +15°C° 0 mm 1 mps 720 mmHg 79%
    23:00 +15°C° 0 mm 1 mps 720 mmHg 81%

    3 May, Wednesday

    Time Temperature Precipitation Wind Pressure Humidity
    00:00 +15°C° 0 mm 1 mps 720 mmHg 82%
    01:00 +15°C° 0 mm 1 mps 720 mmHg 81%
    02:00 +15°C° 0 mm 1 mps 720 mmHg 81%
    03:00 +15°C° 0 mm 1 mps 719 mmHg 80%
    04:00 +16°C° 0 mm 1 mps 719 mmHg 78%
    05:00 +16°C° 0 mm 1 mps 719 mmHg 76%
    06:00 +17°C° 0 mm 2 mps 719 mmHg 73%
    07:00 +20°C° 0 mm 2 mps 719 mmHg 63%
    08:00 +23°C° 0 mm 2 mps 720 mmHg 52%
    09:00 +26°C° 0 mm 2 mps 720 mmHg 41%
    10:00 +28°C° 0 mm 3 mps 720 mmHg 37%
    11:00 +29°C° 0 mm 3 mps 720 mmHg 34%
    12:00 +30°C° 0 mm 4 mps 719 mmHg 30%
    13:00 +30°C° 0 mm 4 mps 719 mmHg 31%
    14:00 +30°C° 0 mm 5 mps 719 mmHg 32%
    15:00 +30°C° 0 mm 5 mps 718 mmHg 33%
    16:00 +29°C° 0 mm 4 mps 718 mmHg 38%
    17:00 +27°C° 0 mm 4 mps 718 mmHg 42%
    18:00 +25°C° 0 mm 3 mps 718 mmHg 47%
    19:00 +23°C° 0 mm 2 mps 718 mmHg 57%
    20:00 +19°C° 0 mm 2 mps 718 mmHg 66%
    21:00 +18°C° 0 mm 1 mps 719 mmHg 76%
    22:00 +18°C° 0 mm 1 mps 718 mmHg 78%
    23:00 +16°C° 0 mm 1 mps 718 mmHg 79%

    4 May, Thursday

    Time Temperature Precipitation Wind Pressure Humidity
    00:00 +16°C° 0 mm 1 mps 718 mmHg 81%
    01:00 +15°C° 0 mm 1 mps 718 mmHg 82%
    02:00 +15°C° 0 mm 1 mps 717 mmHg 83%
    03:00 +15°C° 0 mm 1 mps 717 mmHg 84%
    04:00 +16°C° 0 mm 1 mps 717 mmHg 80%
    05:00 +16°C° 0 mm 1 mps 717 mmHg 76%
    06:00 +18°C° 0 mm 1 mps 718 mmHg 73%
    07:00 +22°C° 0 mm 1 mps 718 mmHg 60%
    08:00 +25°C° 0 mm 1 mps 718 mmHg 48%
    09:00 +29°C° 0 mm 1 mps 719 mmHg 36%
    10:00 +30°C° 0 mm 2 mps 719 mmHg 32%
    11:00 +31°C° 0 mm 2 mps 718 mmHg 28%
    12:00 +33°C° 0 mm 3 mps 718 mmHg 24%
    13:00 +34°C° 0 mm 3 mps 718 mmHg 24%
    14:00 +34°C° 0 mm 4 mps 717 mmHg 24%
    15:00 +34°C° 0 mm 4 mps 717 mmHg 23%
    16:00 +32°C° 0 mm 4 mps 717 mmHg 27%
    17:00 +30°C° 0 mm 3 mps 717 mmHg 31%
    18:00 +28°C° 0 mm 3 mps 716 mmHg 36%
    19:00 +26°C° 0 mm 2 mps 716 mmHg 42%
    20:00 +23°C° 0 mm 2 mps 716 mmHg 49%
    21:00 +21°C° 0 mm 1 mps 717 mmHg 56%
    22:00 +21°C° 0 mm 1 mps 716 mmHg 56%
    23:00 +21°C° 0 mm 1 mps 716 mmHg 55%
    Show more